Milford Square, PA

11:15 PM EST on January 21, 2017 (GMT -0500)
Quakertown

Weather History for KUKT - October, 2013

Change the Weather History Date:

Sunday, October 13, 2013

  Actual Average (KABE) Record (KABE)
Temperature  
Mean Temperature 60 °F -  
Max Temperature 66 °F 64 °F 85 °F (1954)
Min Temperature 53 °F 45 °F 26 °F (2012)
Degree Days  
Heating Degree Days 6    
Growing Degree Days 10 (Base 50)    
Moisture  
Dew Point 50 °F    
Average Humidity 73    
Maximum Humidity 88    
Minimum Humidity 52    
Precipitation  
Precipitation 0.00 in - - ()
Sea Level Pressure  
Sea Level Pressure 30.33 in    
Wind  
Wind Speed 7 mph (ENE)    
Max Wind Speed 12 mph    
Max Gust Speed 18 mph    
Visibility 10 miles    
Events      
Averages and records for this station are not official NWS values.
T = Trace of Precipitation, MM = Missing Value Source: NWS Daily Summary

Daily Weather History Graph

Daily Weather History Graph

Search for Another Location

Airport or City:

Trip Planner

Search our weather history database for the weather conditions in past years. The results will help you decide how hot, cold, wet, or windy it might be!

Date:

Astronomy

Oct. 13, 2013 Rise Set
Actual Time 7:10 AM EDT 6:24 PM EDT
Civil Twilight 6:43 AM EDT 6:51 PM EDT
Nautical Twilight 6:11 AM EDT 7:23 PM EDT
Astronomical Twilight 5:39 AM EDT 7:54 PM EDT
Moon 3:14 PM EDT (10/13) 1:16 AM EDT (10/13)
Length of Visible Light 12h 08m
Length of Day
11h 13m
Waxing Gibbous, 69% of the Moon is Illuminated
Oct 13
Waxing Gibbous
Oct 18
Full
Oct 26
Last Quarter
Nov 3
New
Nov 10
First Quarter

Hourly Weather History & Observations

Time (EDT) Temp. Dew Point Humidity Pressure Visibility Wind Dir Wind Speed Gust Speed Precip Events Conditions
12:15 AM 60.8 °F 53.6 °F 77% 30.25 in 10.0 mi ENE 8.1 mph - N/A   Mostly Cloudy
12:35 AM 60.8 °F 53.6 °F 77% 30.26 in 10.0 mi ENE 6.9 mph - N/A   Mostly Cloudy
12:55 AM 60.8 °F 53.6 °F 77% 30.26 in 10.0 mi ENE 8.1 mph - N/A   Mostly Cloudy
1:15 AM 60.8 °F 53.6 °F 77% 30.26 in 10.0 mi ENE 9.2 mph 16.1 mph N/A   Mostly Cloudy
1:35 AM 60.8 °F 53.6 °F 77% 30.26 in 10.0 mi ENE 8.1 mph - N/A   Mostly Cloudy
1:55 AM 59.0 °F 53.6 °F 82% 30.27 in 10.0 mi ENE 6.9 mph - N/A   Overcast
2:15 AM 59.0 °F 51.8 °F 77% 30.26 in 10.0 mi ENE 6.9 mph 18.4 mph N/A   Mostly Cloudy
2:35 AM 59.0 °F 51.8 °F 77% 30.26 in 10.0 mi ENE 9.2 mph - N/A   Overcast
2:55 AM 59.0 °F 51.8 °F 77% 30.26 in 10.0 mi ENE 5.8 mph - N/A   Overcast
3:15 AM 59.0 °F 51.8 °F 77% 30.25 in 10.0 mi ENE 10.4 mph - N/A   Overcast
3:35 AM 59.0 °F 51.8 °F 77% 30.26 in 10.0 mi ENE 6.9 mph - N/A   Overcast
3:55 AM 59.0 °F 51.8 °F 77% 30.26 in 10.0 mi ENE 5.8 mph - N/A   Overcast
4:15 AM 59.0 °F 51.8 °F 77% 30.26 in 10.0 mi ENE 6.9 mph - N/A   Overcast
4:35 AM 57.2 °F 50.0 °F 77% 30.27 in 10.0 mi ENE 8.1 mph - N/A   Overcast
4:55 AM 57.2 °F 50.0 °F 77% 30.27 in 10.0 mi ENE 10.4 mph - N/A   Overcast
5:15 AM 57.2 °F 50.0 °F 77% 30.28 in 10.0 mi ENE 6.9 mph - N/A   Overcast
5:35 AM 57.2 °F 50.0 °F 77% 30.29 in 10.0 mi NE 4.6 mph - N/A   Overcast
5:55 AM 57.2 °F 50.0 °F 77% 30.30 in 10.0 mi ENE 5.8 mph - N/A   Overcast
6:15 AM 57.2 °F 50.0 °F 77% 30.31 in 10.0 mi ENE 5.8 mph - N/A   Mostly Cloudy
6:35 AM 55.4 °F 50.0 °F 82% 30.31 in 10.0 mi ENE 6.9 mph - N/A   Mostly Cloudy
6:55 AM 55.4 °F 50.0 °F 82% 30.31 in 10.0 mi ENE 4.6 mph - N/A   Overcast
7:15 AM 55.4 °F 50.0 °F 82% 30.32 in 10.0 mi ENE 8.1 mph - N/A   Overcast
7:35 AM 55.4 °F 50.0 °F 82% 30.33 in 10.0 mi ENE 10.4 mph - N/A   Overcast
7:55 AM 55.4 °F 50.0 °F 82% 30.33 in 10.0 mi ENE 9.2 mph - N/A   Overcast
8:15 AM 55.4 °F 50.0 °F 82% 30.34 in 10.0 mi ENE 8.1 mph - N/A   Overcast
8:35 AM 55.4 °F 50.0 °F 82% 30.34 in 10.0 mi ENE 8.1 mph - N/A   Overcast
8:55 AM 55.4 °F 50.0 °F 82% 30.35 in 10.0 mi ENE 6.9 mph - N/A   Overcast
9:15 AM 55.4 °F 50.0 °F 82% 30.36 in 10.0 mi ENE 5.8 mph - N/A   Overcast
9:35 AM 55.4 °F 50.0 °F 82% 30.37 in 10.0 mi ENE 8.1 mph - N/A   Overcast
9:55 AM 57.2 °F 50.0 °F 77% 30.37 in 10.0 mi ENE 9.2 mph - N/A   Overcast
10:15 AM 57.2 °F 50.0 °F 77% 30.37 in 10.0 mi East 9.2 mph 16.1 mph N/A   Overcast
10:35 AM 59.0 °F 50.0 °F 72% 30.37 in 10.0 mi ENE 8.1 mph - N/A   Overcast
10:55 AM 59.0 °F 50.0 °F 72% 30.37 in 10.0 mi ENE 9.2 mph - N/A   Mostly Cloudy
11:15 AM 60.8 °F 48.2 °F 63% 30.37 in 10.0 mi ENE 8.1 mph 16.1 mph N/A   Partly Cloudy
11:35 AM 62.6 °F 50.0 °F 63% 30.37 in 10.0 mi East 8.1 mph 16.1 mph N/A   Clear
11:55 AM 62.6 °F 50.0 °F 63% 30.38 in 10.0 mi East 11.5 mph 17.3 mph N/A   Scattered Clouds
12:15 PM 62.6 °F 50.0 °F 63% 30.37 in 10.0 mi East 9.2 mph - N/A   Mostly Cloudy
12:35 PM 62.6 °F 50.0 °F 63% 30.36 in 10.0 mi ENE 6.9 mph - N/A   Scattered Clouds
12:55 PM 64.4 °F 50.0 °F 59% 30.35 in 10.0 mi ENE 8.1 mph 18.4 mph N/A   Clear
1:15 PM 64.4 °F 50.0 °F 59% 30.35 in 10.0 mi ENE 9.2 mph - N/A   Scattered Clouds
1:35 PM 64.4 °F 50.0 °F 59% 30.34 in 10.0 mi East 6.9 mph - N/A   Mostly Cloudy
1:55 PM 66.2 °F 50.0 °F 56% 30.34 in 10.0 mi East 10.4 mph 17.3 mph N/A   Scattered Clouds
2:15 PM 64.4 °F 51.8 °F 64% 30.33 in 10.0 mi East 9.2 mph - N/A   Mostly Cloudy
2:35 PM 64.4 °F 50.0 °F 59% 30.33 in 10.0 mi East 5.8 mph 18.4 mph N/A   Overcast
2:55 PM 66.2 °F 50.0 °F 56% 30.33 in 10.0 mi ENE 6.9 mph - N/A   Mostly Cloudy
3:15 PM 66.2 °F 50.0 °F 56% 30.32 in 10.0 mi ENE 6.9 mph 16.1 mph N/A   Partly Cloudy
3:35 PM 66.2 °F 48.2 °F 52% 30.32 in 10.0 mi East 8.1 mph - N/A   Clear
3:55 PM 66.2 °F 48.2 °F 52% 30.32 in 10.0 mi ESE 9.2 mph - N/A   Clear
4:15 PM 66.2 °F 48.2 °F 52% 30.32 in 10.0 mi East 6.9 mph - N/A   Clear
4:35 PM 66.2 °F 48.2 °F 52% 30.33 in 10.0 mi ESE 8.1 mph - N/A   Clear
4:55 PM 66.2 °F 48.2 °F 52% 30.33 in 10.0 mi East 5.8 mph - N/A   Clear
5:15 PM 64.4 °F 48.2 °F 56% 30.33 in 10.0 mi East 8.1 mph - N/A   Clear
5:35 PM 64.4 °F 48.2 °F 56% 30.33 in 10.0 mi ENE 5.8 mph - N/A   Clear
5:55 PM 62.6 °F 48.2 °F 59% 30.33 in 10.0 mi East 4.6 mph - N/A   Clear
6:15 PM 60.8 °F 48.2 °F 63% 30.34 in 10.0 mi ENE 4.6 mph - N/A   Clear
6:35 PM 59.0 °F 48.2 °F 67% 30.34 in 10.0 mi ENE 4.6 mph - N/A   Clear
6:55 PM 59.0 °F 50.0 °F 72% 30.34 in 10.0 mi East 4.6 mph - N/A   Clear
7:15 PM 57.2 °F 50.0 °F 77% 30.35 in 10.0 mi ENE 3.5 mph - N/A   Clear
7:35 PM 57.2 °F 50.0 °F 77% 30.35 in 10.0 mi East 4.6 mph - N/A   Clear
7:55 PM 57.2 °F 50.0 °F 77% 30.35 in 10.0 mi East 3.5 mph - N/A   Clear
8:15 PM 57.2 °F 50.0 °F 77% 30.36 in 10.0 mi East 4.6 mph - N/A   Clear
8:35 PM 55.4 °F 50.0 °F 82% 30.37 in 10.0 mi East 3.5 mph - N/A   Clear
8:55 PM 55.4 °F 50.0 °F 82% 30.37 in 10.0 mi East 3.5 mph - N/A   Partly Cloudy
9:15 PM 55.4 °F 50.0 °F 82% 30.37 in 10.0 mi East 3.5 mph - N/A   Scattered Clouds
9:35 PM 55.4 °F 50.0 °F 82% 30.38 in 10.0 mi East 3.5 mph - N/A   Mostly Cloudy
9:55 PM 55.4 °F 50.0 °F 82% 30.38 in 10.0 mi East 4.6 mph - N/A   Overcast
10:15 PM 55.4 °F 50.0 °F 82% 30.38 in 10.0 mi ESE 4.6 mph - N/A   Overcast
10:35 PM 55.4 °F 50.0 °F 82% 30.38 in 10.0 mi East 3.5 mph - N/A   Mostly Cloudy
10:55 PM 53.6 °F 50.0 °F 88% 30.38 in 10.0 mi East 3.5 mph - N/A   Mostly Cloudy
11:15 PM 53.6 °F 50.0 °F 88% 30.38 in 10.0 mi East 3.5 mph - N/A   Mostly Cloudy
11:35 PM 53.6 °F 50.0 °F 88% 30.38 in 10.0 mi Calm Calm - N/A   Overcast
11:55 PM 53.6 °F 50.0 °F 88% 30.38 in 10.0 mi ENE 3.5 mph - N/A   Overcast